Regional Weather Roundup
Issued by NWS

Home | Current Version | Previous Version | Graphics & Text | Print | Product List | Glossary On
Versions: 1 2 3 4 5 6 7 8 9 10 11 12 13 14 15 16 17 18 19 20 21 22 23 24 25 26 27 28 29 30 31 32 33 34 35 36 37 38 39 40 41 42 43 44 45 46 47 48 49 50
000
ASUS43 KOAX 220002
RWRNE

WEATHER ROUNDUP FOR NEBRASKA
NATIONAL WEATHER SERVICE OMAHA NE
700 PM CDT FRI JUL 21 2017

NOTES: SATELLITE DATA IS BEING USED TO AUGMENT CLOUD COVER ABOVE
       12000 FEET.
       "FAIR" INDICATES FEW OR NO CLOUDS BELOW 12,000 FEET WITH NO
       SIGNIFICANT WEATHER AND/OR OBSTRUCTIONS TO VISIBILITY.


NEZ001>004-019>022-054>056-220100-
NEBRASKA PANHANDLE

CITY           SKY/WX    TMP DP  RH WIND       PRES   REMARKS
SCOTTSBLUFF    CLOUDY    92  51  24 NE5       29.96S
6HR MIN TEMP:  89; 6HR MAX TEMP:  98;

ALLIANCE       SUNNY     94  45  18 NW9       29.95S HX  90
6HR MIN TEMP:  91; 6HR MAX TEMP:  97;

CHADRON        SUNNY     97  50  20 NE12      29.88F HX  94
6HR MIN TEMP:  92; 6HR MAX TEMP: 100;

GORDON         FAIR      90  58  33 N9        29.92S
6HR MIN TEMP:  87; 6HR MAX TEMP:  94;

KIMBALL        CLOUDY    89  49  25 N8        30.05F
SIDNEY         SUNNY     95  38  13 NE12      30.00S HX  90
6HR MIN TEMP:  94; 6HR MAX TEMP:  98;

$$

NEZ057>060-069>072-079>082-220100-
SOUTHWEST NEBRASKA

CITY           SKY/WX    TMP DP  RH WIND       PRES   REMARKS
NORTH PLATTE   SUNNY    102  55  20 NW9       29.81F HX 100
6HR MIN TEMP:  95; 6HR MAX TEMP: 104;

IMPERIAL       MOSUNNY  103  47  15 N10       29.87S HX  99
6HR MIN TEMP:  96; 6HR MAX TEMP: 103;

LEXINGTON      MOSUNNY   96  75  51 S6        29.79F HX 107
MCCOOK         CLOUDY   103  59  23 S9        29.80F HX 103
6HR MIN TEMP:  96; 6HR MAX TEMP: 107;

OGALLALA       SUNNY    101  36  10 N16G22    29.89S HX  95
$$

NEZ005>010-023>029-035>040-094-220100-
NORTH CENTRAL NEBRASKA

CITY           SKY/WX    TMP DP  RH WIND       PRES   REMARKS
VALENTINE      SUNNY    100  59  25 NW12      29.82S HX 100
6HR MIN TEMP:  96; 6HR MAX TEMP: 104;

AINSWORTH      CLOUDY    92  73  53 E3        29.82R HX 100
BROKEN BOW     CLOUDY    98  60  28 NW10      29.77F HX  98
6HR MIN TEMP:  96; 6HR MAX TEMP: 103;

O`NEILL        DRIZZLE   87  76  70 NE5       29.78S HX  97
ORD            SUNNY     96  74  48 S14       29.73F HX 107
6HR MIN TEMP:  93; 6HR MAX TEMP: 101;

THEDFORD       SUNNY     99  55  23 NW10G20   29.84S HX  97
$$

NEZ041-046>049-061>064-073>077-083>087-220100-
SOUTH CENTRAL NEBRASKA

CITY           SKY/WX    TMP DP  RH WIND       PRES   REMARKS
GRAND ISLAND   SUNNY     96  74  48 S7        29.75F HX 107
6HR MIN TEMP:  92; 6HR MAX TEMP:  99;

AURORA         SUNNY     94  73  50 S6        29.74F HX 103
HASTINGS       SUNNY     95  72  47 S6        29.77F HX 103
6HR MIN TEMP:  89; 6HR MAX TEMP:  96;

HEBRON         SUNNY     99  73  43 S7        29.74F HX 108
HOLDREGE       SUNNY     92  76  59 SE3       29.79F HX 105
KEARNEY        SUNNY     95  78  58 S8        29.77F HX 111
YORK           SUNNY     93  79  62 S3        29.75F HX 110
$$

NEZ011>018-030>034-042>045-220100-
NORTHEAST NEBRASKA

CITY           SKY/WX    TMP DP  RH WIND       PRES   REMARKS
NORFOLK        SUNNY     91  72  53 S5        29.75S HX  98
6HR MIN TEMP:  91; 6HR MAX TEMP:  96;

ALBION         SUNNY     89  77  65 W5        29.78R HX 101
BLAIR          SUNNY     97  78  54 CALM      29.73F HX 113
COLUMBUS       SUNNY     93  75  55 S8        29.73F HX 104
FREMONT        SUNNY     96  73  47 SE5       29.72F HX 106
TEKAMAH        SUNNY     95  78  58 W3        29.71F HX 111
6HR MIN TEMP:  91; 6HR MAX TEMP:  97;

WAYNE          SUNNY     92  76  59 S6        29.75R HX 104
$$

NEZ050>053-065>068-078-088>093-220100-
SOUTHEAST NEBRASKA

CITY           SKY/WX    TMP DP  RH WIND       PRES   REMARKS
LINCOLN        SUNNY     96  74  48 S9        29.72F HX 107
6HR MIN TEMP:  94; 6HR MAX TEMP: 100;

OMAHA EPPLEY   MOSUNNY  101  73  40 S13       29.71F HX 112
6HR MIN TEMP:  97; 6HR MAX TEMP: 103;

BEATRICE       SUNNY    101  69  35 S12       29.74F HX 107
NEBRASKA CITY  SUNNY     94  76  57 S9        29.74F HX 106
PLATTSMOUTH    SUNNY     94  77  57 S8        29.74F HX 108
$$

NEZ044-045-051>053-067-220100-
OMAHA AREA

CITY           SKY/WX    TMP DP  RH WIND       PRES   REMARKS
OMAHA EPPLEY   MOSUNNY  101  73  40 S13       29.71F HX 112
6HR MIN TEMP:  97; 6HR MAX TEMP: 103;

BLAIR          SUNNY     97  78  54 CALM      29.73F HX 113
FREMONT        SUNNY     96  73  47 SE5       29.72F HX 106
OFFUTT AFB     SUNNY     97  77  52 SE10      29.72F HX 111
PLATTSMOUTH    SUNNY     94  77  57 S8        29.74F HX 108
WAHOO          FAIR      97  75  49 S3        29.72F HX 109
$$




USA.gov is the U.S. government's official web portal to all federal, state and local government web resources and services.